FW1502 Weather Reports


Display with metric or nautical units.
time (UTC)temp
F
wind
direction
speed
MPH
gust
MPH
rain 1hr
in
rain 24hr
in
rain mn
in
humidity
%
barometer
mb
20221209160005 0 323 12.0 19.0 0.00 0.00 0.00 1023.1
20221209154613 0 325 12.0 17.0 0.00 0.00 0.00 1023.1
20221209153102 0 5 9.0 18.0 0.00 0.00 0.00 1023.2
20221209151550 0 313 10.0 19.0 0.00 0.00 0.00 1023.2
20221209150047 0 340 10.0 18.0 0.00 0.00 0.00 1023.1
20221209144542 0 323 9.0 18.0 0.00 0.00 0.00 1023.2
20221209143040 0 5 11.0 18.0 0.00 0.00 0.00 1023.2
20221209141538 0 334 8.0 17.0 0.00 0.00 0.00 1023.1
20221209140033 0 355 9.0 17.0 0.00 0.00 0.00 1023.0
20221209134533 0 343 9.0 16.0 0.00 0.00 0.00 1022.8
20221209133019 0 341 9.0 19.0 0.00 0.00 0.00 1022.8
20221209131516 0 331 10.0 18.0 0.00 0.00 0.00 1022.6
20221209130027 0 343 9.0 17.0 0.00 0.00 0.00 1022.5
20221209124506 0 360 9.0 17.0 0.00 0.00 0.00 1022.5
20221209123001 0 67 11.0 16.0 0.00 0.00 0.00 1022.1
20221209121604 0 349 11.0 18.0 0.00 0.00 0.00 1022.2
20221209120059 0 335 8.0 17.0 0.00 0.00 0.00 1022.3
20221209114549 0 316 11.0 17.0 0.00 0.00 0.00 1022.3
20221209113044 0 348 10.0 16.0 0.00 0.00 0.00 1022.5
20221209111547 0 9 9.0 18.0 0.00 0.00 0.00 1022.4
20221209110036 0 339 10.0 17.0 0.00 0.00 0.00 1022.1
20221209104533 0 5 10.0 19.0 0.00 0.00 0.00 1022.0
20221209103026 0 339 10.0 17.0 0.00 0.00 0.00 1022.1
20221209101526 0 355 12.0 18.0 0.00 0.00 0.00 1021.7
20221209100018 0 319 10.0 17.0 0.00 0.00 0.00 1021.9
20221209094514 0 5 11.0 17.0 0.00 0.00 0.00 1021.8
20221209093009 0 360 11.0 16.0 0.00 0.00 0.00 1021.8
20221209091505 0 44 11.0 18.0 0.00 0.00 0.00 1021.8
20221209090103 0 29 10.0 16.0 0.00 0.00 0.00 1021.8
20221209084557 0 28 10.0 17.0 0.00 0.00 0.00 1021.7
20221209083052 0 15 11.0 16.0 0.00 0.00 0.00 1021.9
20221209081547 0 360 9.0 16.0 0.00 0.00 0.00 1022.0
20221209080143 0 22 8.0 15.0 0.00 0.00 0.00 1022.1
20221209074542 0 5 11.0 17.0 0.00 0.00 0.00 1022.2
20221209073037 0 88 11.0 18.0 0.00 0.00 0.00 1022.1
20221209071541 0 42 11.0 19.0 0.00 0.00 0.00 1022.3
20221209070032 0 5 10.0 19.0 0.00 0.00 0.00 1022.5
20221209064535 0 19 10.0 17.0 0.00 0.00 0.00 1022.2
20221209063017 0 355 10.0 17.0 0.00 0.00 0.00 1022.4
20221209061512 0 18 9.0 16.0 0.00 0.00 0.00 1022.5
20221209060015 0 5 11.0 17.0 0.00 0.00 0.00 1022.5
20221209054508 0 14 10.0 17.0 0.00 0.00 0.00 1022.4
20221209053110 0 344 11.0 19.0 0.00 0.00 0.00 1022.4
20221209051556 0 23 10.0 15.0 0.00 0.00 0.00 1022.5
20221209050052 0 45 9.0 16.0 0.00 0.00 0.00 1022.4
20221209044547 0 5 9.0 15.0 0.00 0.00 0.00 1022.4
20221209043055 0 355 8.0 17.0 0.00 0.00 0.00 1022.5
20221209041541 0 355 8.0 14.0 0.00 0.00 0.00 1022.6
20221209040036 0 38 8.0 14.0 0.00 0.00 0.00 1022.5
20221209034533 0 347 10.0 16.0 0.00 0.00 0.00 1022.1
20221209033026 0 324 7.0 12.0 0.00 0.00 0.00 1022.2
20221209031520 0 38 6.0 13.0 0.00 0.00 0.00 1022.5
20221209030018 0 360 9.0 15.0 0.00 0.00 0.00 1022.7
20221209024520 0 46 9.0 13.0 0.00 0.00 0.00 1022.4
20221209023007 0 26 8.0 16.0 0.00 0.00 0.00 1022.3
20221209021503 0 23 8.0 15.0 0.00 0.00 0.00 1022.5
20221209020059 0 18 8.0 15.0 0.00 0.00 0.00 1022.6
20221209014554 0 5 9.0 15.0 0.00 0.00 0.00 1023.0
20221209013101 0 355 8.0 15.0 0.00 0.00 0.00 1022.7
20221209011545 0 355 7.0 15.0 0.00 0.00 0.00 1022.7
20221209010044 0 360 9.0 13.0 0.00 0.00 0.00 1022.6
20221209004536 0 12 6.0 14.0 0.00 0.00 0.00 1022.9
20221209003031 0 37 6.0 12.0 0.00 0.00 0.00 1022.7
20221209001529 0 14 7.0 11.0 0.00 0.00 0.00 1022.7
20221209000037 0 355 7.0 14.0 0.00 0.00 0.00 1022.7
20221208234519 0 350 8.0 14.0 0.00 0.00 0.00 1022.2
20221208233013 0 11 8.0 14.0 0.00 0.00 0.00 1022.5
20221208231516 0 13 8.0 13.0 0.00 0.00 0.00 1022.8
20221208230007 0 20 8.0 14.0 0.00 0.00 0.00 1022.9
20221208224501 0 23 7.0 12.0 0.00 0.00 0.00 1022.5
20221208223056 0 300 5.0 11.0 0.00 0.00 0.00 1022.3
20221208221556 0 327 7.0 15.0 0.00 0.00 0.00 1022.2
20221208220050 0 5 9.0 14.0 0.00 0.00 0.00 1022.2
20221208214544 0 30 9.0 15.0 0.00 0.00 0.00 1022.1
20221208213039 0 17 8.0 14.0 0.00 0.00 0.00 1022.3
20221208211539 0 360 7.0 13.0 0.00 0.00 0.00 1022.2
20221208210034 0 31 9.0 15.0 0.00 0.00 0.00 1022.2
20221208204526 0 30 11.0 17.0 0.00 0.00 0.00 1022.4
20221208203021 0 17 8.0 15.0 0.00 0.00 0.00 1022.3
20221208201521 0 5 11.0 16.0 0.00 0.00 0.00 1022.2
20221208200021 0 360 10.0 16.0 0.00 0.00 0.00 1022.0
20221208194512 0 343 10.0 18.0 0.00 0.00 0.00 1022.1
20221208193003 0 38 11.0 18.0 0.00 0.00 0.00 1022.1
20221208191602 0 339 10.0 18.0 0.00 0.00 0.00 1022.1
20221208190105 0 347 9.0 17.0 0.00 0.00 0.00 1022.2
20221208184550 0 355 10.0 18.0 0.00 0.00 0.00 1022.3
20221208183046 0 10 10.0 17.0 0.00 0.00 0.00 1022.5
20221208181542 0 5 12.0 18.0 0.00 0.00 0.00 1022.7
20221208180044 0 21 10.0 17.0 0.00 0.00 0.00 1022.7
20221208174537 0 331 12.0 19.0 0.00 0.00 0.00 1022.9
20221208173029 0 19 11.0 20.0 0.00 0.00 0.00 1022.7
20221208171525 0 333 11.0 18.0 0.00 0.00 0.00 1022.9
20221208170020 0 360 11.0 18.0 0.00 0.00 0.00 1023.0
20221208164517 0 32 11.0 17.0 0.00 0.00 0.00 1023.3
20221208163012 0 15 10.0 17.0 0.00 0.00 0.00 1023.4
20221208161506 0 26 7.0 20.0 0.00 0.00 0.00 1023.1